Volver al catálogo

METEOR 2-11 DEB

ActivoPO
NORAD 60005·DEBRIS·🇷🇺 Russia

Lanzado Jul 5, 1984 desde Plesetsk Cosmodrome

Loading…

Próximos Pases (próximas 24 horas)

TLE

ActualizadoSource: Space-Track

Época: Sep 12, 2026, 09:08 UTC

1 60005U 84072AA  26255.38073209  .00000077  00000-0  40586-4 0  9995
2 60005  82.5177 289.9466 0026993  70.8802 289.5287 14.01159863449131

Sigue METEOR 2-11 DEB en tiempo real con AllMySat

Download on the App Store